Regional Weather Roundup
Issued by NWS Midland/Odessa, TX

Home | Current Version | Previous Version | Text Only | Print | Product List | Glossary On
Versions: 1 2 3 4 5 6 7 8 9 10 11 12 13 14 15 16 17 18 19 20 21 22 23 24 25 26 27 28 29 30 31 32 33 34 35 36 37 38 39 40 41 42 43 44 45 46 47 48 49 50
000
ASUS44 KMAF 260110
RWRMAF
MIDLAND AREA WEATHER ROUNDUP
NATIONAL WEATHER SERVICE MIDLAND TX
800 PM CDT THU AUG 25 2016

...IN SOUTHWEST TEXAS AND SOUTHEAST NEW MEXICO...

CITY           SKY/WX    TMP DP  RH WIND       PRES   REMARKS
ALPINE         PTCLDY    71  57  60 N9        30.19R
ANDREWS        NOT AVBL
ARTESIA        CLOUDY    73  64  73 CALM      30.07R
BIG SPRING     CLOUDY    84  51  31 SE7       30.03R
CARLSBAD       CLOUDY    72  65  78 SW8       30.03F
DRYDEN           N/A     85  61  44 SE15      29.98R
FORT STOCKTON  TSTM      67  64  90 W17G24    30.08R
GUAD PASS      CLOUDY    69  56  62 W3        30.21R
HOBBS          TSTM      66  64  94 E16G28    30.13R
MARFA          PTCLDY   N/A N/A N/A N9        30.17S
MIDLAND AIRPK  CLOUDY    75  62  64 NW14G25   30.07R
MIDLAND INTL   CLOUDY    75  60  59 NW16      30.05R
ODESSA         CLOUDY    70  61  73 N10       30.07S
PECOS          MOCLDY    72  66  81 SE6       30.06R
PRESIDIO       NOT AVBL
SEMINOLE       HVY RAIN  64  62  94 NW6       30.15R
SNYDER           N/A     82  61  48 CALM      30.02R
WINK           LGT RAIN  72  59  63 MISG      30.03F
$$
...OTHER STATIONS IN TEXAS...

CITY           SKY/WX    TMP DP  RH WIND       PRES   REMARKS
ABILENE        CLEAR     85  61  44 SE9       30.00R
AMARILLO       LGT RAIN  65  60  84 SE9       30.12R
AUSTIN         CLOUDY    86  73  65 SE6       29.98R
BROWNSVILLE    CLEAR     86  74  67 E10       29.95S
CORPUS CHRISTI PTCLDY    86  75  69 E15       29.94S
DALLAS FTW     MOCLDY    89  68  49 SE13      29.98R
DEL RIO        CLEAR     87  63  44 E9        29.92S
EL PASO        MOCLDY    77  57  50 E23G33    30.04R
HOUSTON INT    MOCLDY    80  76  87 SE3       29.99S
LUBBOCK        CLOUDY    76  62  62 SE6       30.08R
SAN ANGELO     CLEAR     86  58  38 SE6       29.97R
SAN ANTONIO    PTCLDY    83  73  72 SE14      29.98S
WACO           PTCLDY    86  73  65 E5        29.98R
WICHITA FALLS  NOT AVBL
$$
...OTHER LOCATIONS IN NEW MEXICO...

CITY           SKY/WX    TMP DP  RH WIND       PRES   REMARKS
ALAMAGORDO     CLOUDY    82  45  26 S17G25    30.05R
ALBUQUERQUE    MOCLDY    81  40  23 W6        30.12S
CANNON AFB     CLOUDY    71  59  65 E7        30.11R
CLOVIS         CLOUDY    66  57  72 E8        30.12R
HOLLOMAN AFB   NOT AVBL
ROSWELL        CLOUDY    75  61  61 S8        30.04F
RUIDOSO          N/A     63  50  63 N3        30.26S
SANTA FE       CLOUDY    74  43  32 SE18      30.19S
TRUTH OR CONSE PTCLDY    84  41  21 SW9       30.06F
TUCUMCARI      CLOUDY    75  57  53 SE6       30.08S
$$




USA.gov is the U.S. government's official web portal to all federal, state and local government web resources and services.